GFSNGP_sfc_30mbdewp_000.txt.gz
Dewpoint
24 27 25 23 22 23 23 24 23 22 25 33 34 35 36 36 35 34 33 32 31 31 25 20 20 19 19 20 20 22 21 23 31 34 32 31 31 31 33 33 33 20 16 18
24 31 29 22 22 23 23 22 23 31 32 35 35 37 36 35 34 33 32 31 30 29 20 19 19 18 18 18 20 22 21 29 31 33 34 34 32 34 33 34 23 14 16 20
15 30 29 20 24 27 26 30 25 24 33 35 35 36 35 33 32 31 30 29 29 21 16 18 17 17 16 18 20 22 24 30 31 32 33 34 35 35 34 25 17 15 19 21
18 24 9 27 29 29 34 35 35 35 34 34 35 36 33 32 30 31 30 28 23 14 14 16 16 16 17 19 20 22 29 29 31 30 31 32 34 32 31 24 18 18 22 23
15 20 18 24 28 27 26 33 37 36 36 35 36 34 33 32 31 29 26 21 18 15 14 15 16 16 18 19 20 22 28 29 30 31 31 31 31 31 32 27 17 23 23 23
27 12 3 22 32 33 30 26 38 37 36 35 34 30 30 35 35 30 20 19 16 15 15 15 16 17 18 20 22 22 28 30 31 32 32 32 32 31 30 17 22 22 21 22
26 20 22 25 31 32 26 19 39 38 38 36 33 31 33 37 33 22 20 17 17 16 16 17 18 20 21 22 22 24 28 29 30 31 30 30 30 24 18 22 22 19 18 20
28 25 17 30 33 29 29 41 40 39 38 37 37 36 36 33 22 20 17 17 17 17 18 20 21 22 21 22 24 26 26 27 27 26 25 23 21 20 21 20 19 17 15 15
28 25 29 32 32 36 40 40 41 39 39 38 36 36 28 23 19 17 16 16 17 17 19 21 22 22 22 22 25 26 26 26 25 24 24 24 20 18 20 19 18 17 16 14
33 32 34 35 42 43 42 41 41 39 39 37 35 29 20 18 17 16 17 17 19 20 21 22 24 24 25 26 26 26 25 25 25 25 25 24 21 20 19 18 17 18 17 15
33 34 38 40 42 42 42 41 41 40 39 38 25 18 17 17 18 19 19 20 21 21 23 24 25 27 28 29 28 26 26 25 25 26 25 23 20 21 20 19 18 18 17 16
27 33 33 36 42 42 40 39 40 39 23 19 18 17 17 19 20 21 21 21 20 23 25 26 27 26 28 30 30 29 26 26 26 25 25 24 23 22 22 22 20 20 19 16
36 38 40 41 42 41 39 39 39 29 18 18 19 19 20 20 22 22 21 21 23 25 26 28 26 27 28 30 30 30 31 31 27 25 25 23 21 20 19 20 24 24 21 20
40 42 41 41 40 40 32 26 21 20 20 19 21 23 22 21 22 23 23 23 25 26 28 27 27 28 29 31 29 28 29 27 27 25 22 23 21 20 21 21 20 20 22 22
43 41 40 41 38 31 23 20 20 20 21 20 22 21 19 21 24 25 25 26 27 27 27 28 27 28 29 31 30 28 29 27 24 23 21 21 20 21 23 21 21 21 21 23
41 38 39 37 26 21 20 21 20 21 21 20 18 18 22 27 27 26 27 28 27 26 26 26 26 28 30 32 30 27 27 25 22 21 23 22 21 25 23 22 21 21 20 20
36 35 30 26 24 22 22 23 23 23 22 20 19 23 26 26 26 26 27 28 27 27 26 26 27 29 30 32 31 27 27 24 24 25 25 24 24 24 24 22 19 20 21 21
31 31 28 27 24 25 25 25 24 22 20 23 25 25 24 25 25 26 27 27 27 26 25 26 27 29 32 33 31 27 27 24 23 23 21 20 21 25 25 20 21 22 22 25
28 29 27 24 23 20 17 16 19 24 26 26 25 25 25 26 27 28 27 27 25 25 25 27 29 30 32 33 31 28 25 23 22 23 24 21 21 24 26 24 21 22 21 21
23 24 22 19 19 16 14 20 24 25 26 27 26 26 27 26 26 27 27 27 26 25 26 28 31 29 31 31 31 29 25 23 22 22 23 19 20 23 25 24 23 20 21 23
22 20 19 19 20 24 26 26 26 25 26 28 28 27 28 28 28 27 27 27 27 27 28 32 30 30 32 32 31 28 26 24 22 21 22 20 20 23 24 24 23 21 21 22
24 22 24 24 24 25 26 28 29 29 29 29 29 29 29 29 29 27 27 28 29 29 29 30 30 31 32 32 31 30 29 27 25 23 23 22 21 21 22 23 24 25 21 22
25 26 28 27 27 28 29 29 29 29 29 29 29 28 28 30 29 28 27 29 29 30 30 30 30 31 32 32 31 30 29 27 25 25 24 24 22 19 20 23 22 22 21 21
29 28 28 28 29 30 28 28 28 29 28 29 29 29 31 30 30 30 29 29 30 31 30 31 31 31 32 31 31 30 29 28 27 27 25 24 24 23 23 23 24 23 22 21
27 27 27 27 27 27 28 29 29 29 29 29 29 31 31 31 30 29 29 28 30 30 31 31 32 32 32 31 30 29 28 28 28 27 26 26 26 26 25 25 25 26 26 25
28 28 28 29 29 29 29 29 29 30 30 29 29 30 30 29 28 29 29 29 30 30 30 29 31 32 31 31 31 31 30 29 28 28 28 28 27 27 26 26 25 24 25 26
28 28 28 28 28 28 29 30 30 30 30 29 29 30 30 29 30 30 30 29 30 29 29 29 29 29 29 30 30 30 30 30 30 29 29 28 28 27 27 26 25 24 25 26

GFSNGP_sfc_30mbdewp_006.txt.gz
Dewpoint
28 27 25 21 20 26 23 22 19 20 21 21 31 33 35 35 34 34 33 31 30 27 20 20 21 20 19 18 20 21 21 22 25 29 29 30 31 32 32 32 33 32 31 25
27 30 27 22 22 23 26 25 25 26 24 32 34 35 35 35 34 33 32 30 30 27 20 20 19 18 17 17 18 21 22 22 26 28 30 30 31 32 33 35 31 22 16 19
10 26 22 14 18 22 22 24 24 21 24 34 34 34 35 35 34 33 31 28 28 25 21 17 17 18 16 17 18 20 22 23 26 29 29 29 31 31 32 31 29 26 21 22
15 16 6 13 26 26 24 28 30 30 31 34 34 36 36 35 34 33 30 27 27 26 21 15 16 17 17 17 18 20 21 23 26 28 28 29 30 31 31 31 31 24 23 23
12 13 12 13 27 28 27 23 33 31 33 35 35 35 35 35 34 33 30 27 27 25 16 11 13 16 16 17 19 20 21 23 25 28 28 28 30 30 30 31 28 22 22 21
20 8 1 7 26 31 29 23 33 34 33 34 34 32 32 34 34 31 29 26 18 14 13 14 15 18 20 20 21 21 23 23 26 27 27 28 28 27 28 22 20 21 19 17
17 14 15 18 31 30 21 15 35 35 34 34 33 33 33 34 33 31 25 15 16 16 16 18 20 22 20 22 22 23 24 24 26 27 26 26 25 24 20 20 21 19 18 16
22 19 12 25 31 27 28 30 34 36 35 35 35 33 34 34 30 17 16 17 17 16 18 21 22 22 23 23 25 26 26 26 26 26 26 24 23 19 20 21 17 17 15 15
21 16 25 29 31 32 33 31 35 36 37 37 35 35 35 30 18 16 16 16 18 18 19 19 21 24 25 25 26 26 28 27 26 26 24 24 23 19 20 19 16 15 15 13
27 26 28 31 31 34 36 35 37 38 38 38 37 36 31 19 17 16 17 17 18 18 16 19 23 25 27 26 26 27 28 27 26 25 25 25 21 19 19 18 17 17 17 15
30 31 32 33 36 37 38 40 40 40 39 38 37 30 21 18 18 17 18 19 18 18 20 22 24 26 27 26 27 28 29 29 28 26 26 25 19 19 19 19 18 17 17 16
24 27 29 29 32 39 39 39 41 40 38 34 30 21 20 19 20 20 19 19 19 21 23 24 26 27 27 28 28 28 27 26 27 27 30 28 20 21 22 21 21 22 22 17
29 33 34 34 38 40 40 41 41 38 31 25 20 20 20 26 23 20 21 21 22 23 25 26 27 26 27 27 28 28 29 28 26 28 29 28 24 21 19 19 22 23 24 24
39 39 38 40 38 41 40 38 29 23 22 22 23 25 27 22 20 21 21 23 24 26 27 27 26 25 26 26 27 29 30 29 28 27 28 28 27 25 21 20 19 20 20 23
39 40 39 40 35 27 25 23 23 25 28 29 32 31 25 19 19 21 24 26 26 27 27 26 26 25 26 26 28 29 31 30 28 27 23 21 25 26 25 21 20 21 19 20
39 39 37 28 23 25 26 30 31 31 31 33 33 26 21 21 23 24 25 26 26 26 25 25 24 25 26 27 28 30 31 31 29 26 23 21 21 24 25 22 21 22 19 18
36 31 27 29 31 32 32 31 32 33 35 33 27 22 21 24 24 24 24 25 26 25 25 25 25 26 26 29 30 30 31 31 30 28 24 24 25 24 23 22 23 23 20 16
33 33 34 34 34 33 33 32 33 35 33 26 24 22 22 22 22 22 23 24 25 26 25 25 25 25 28 29 29 28 30 30 28 27 27 26 24 23 21 20 21 22 22 18
34 34 35 35 35 35 35 32 29 26 25 25 24 24 24 23 23 25 24 24 25 25 26 27 26 26 27 27 27 28 29 29 28 26 25 25 22 21 19 18 19 21 23 21
35 35 33 24 21 20 19 23 25 24 25 26 25 25 24 24 23 24 23 24 26 26 27 27 26 26 27 29 28 29 30 29 28 26 24 22 21 20 21 19 19 21 22 22
24 21 21 21 22 25 26 26 26 26 26 26 26 25 25 26 26 27 26 26 28 28 27 27 27 28 28 30 30 30 30 30 29 26 24 23 23 23 21 20 20 20 21 22
25 26 26 26 26 26 27 27 28 28 27 27 26 26 26 26 27 26 27 28 29 30 28 26 27 27 28 30 30 30 30 30 29 28 26 26 25 25 25 24 24 24 24 23
27 27 28 27 27 27 28 27 27 26 27 27 27 27 26 27 26 27 28 29 29 28 26 27 27 28 29 29 29 30 29 29 29 29 28 27 27 27 26 26 26 25 25 24
28 27 27 27 27 27 28 28 28 28 27 27 28 27 27 27 27 28 29 30 30 29 28 28 29 30 27 27 28 29 29 29 28 28 28 28 27 27 27 26 25 25 25 25
28 28 28 28 28 27 27 27 27 28 28 28 29 29 28 28 28 30 30 29 29 29 29 29 29 26 22 19 17 18 18 21 22 21 23 24 26 27 26 26 26 25 25 26
28 27 27 27 26 26 25 25 25 25 26 25 26 27 28 27 26 27 27 27 28 29 28 24 19 16 14 12 12 12 12 12 11 11 11 12 14 15 17 20 26 26 26 26
25 24 23 22 22 21 20 20 21 21 22 24 25 24 24 25 27 28 29 30 28 25 20 17 15 14 11 10 9 8 8 8 8 9 8 8 8 8 9 9 11 15 25 27

GFSNGP_sfc_30mbdewp_009.txt.gz
Dewpoint
27 27 26 20 25 24 21 21 17 17 20 21 26 31 34 35 35 33 33 32 31 29 22 21 22 23 25 22 22 23 22 22 23 28 30 30 30 30 31 33 34 32 29 21
26 29 27 23 22 24 26 25 22 24 23 27 32 34 35 35 34 33 33 32 31 29 24 21 22 26 23 21 21 23 22 23 25 27 29 29 30 30 31 33 33 28 26 24
14 25 21 16 18 21 23 25 25 21 23 32 32 33 34 35 34 34 34 33 30 30 26 22 22 24 21 20 21 21 22 23 24 27 28 29 29 28 30 31 32 32 26 25
14 16 6 12 27 24 22 23 25 27 28 31 33 35 36 36 35 35 34 32 31 30 27 24 21 19 21 19 19 20 21 22 24 26 27 28 28 27 30 30 30 31 26 24
12 14 13 11 18 25 25 17 29 28 30 34 36 36 36 36 36 36 35 33 29 29 28 19 16 18 17 18 21 22 22 23 24 25 27 28 27 27 27 28 28 27 24 22
18 9 3 8 19 33 29 21 28 33 33 34 35 32 29 36 37 36 35 31 27 22 15 15 17 19 21 21 21 20 24 25 26 26 27 27 27 26 26 26 19 22 21 17
17 15 15 19 29 30 17 13 30 34 34 35 34 33 34 35 35 35 29 20 17 16 17 19 22 23 20 21 21 25 26 25 26 27 27 27 26 24 23 21 22 23 20 18
20 18 10 24 31 25 26 30 31 35 35 35 35 34 33 34 30 25 19 18 18 18 19 22 22 22 21 22 25 26 26 26 28 27 27 26 25 24 21 21 21 22 22 20
21 17 23 26 32 33 33 31 32 36 37 37 36 34 35 30 22 18 17 17 18 18 19 20 21 23 22 24 27 26 27 27 28 28 26 25 25 23 21 21 21 20 19 20
26 26 27 29 30 32 33 33 35 37 37 38 37 36 32 22 18 17 17 18 19 17 16 17 22 24 25 28 27 27 27 28 29 28 27 26 24 21 20 21 20 20 20 20
29 30 31 31 34 35 35 37 39 40 40 39 38 35 27 20 18 17 24 31 18 17 18 20 24 25 27 27 27 27 28 26 26 27 27 28 27 22 20 20 21 20 20 21
24 26 28 28 31 36 37 38 40 40 39 37 34 29 22 20 22 32 32 20 19 20 21 23 25 27 27 27 28 28 27 26 27 27 26 28 29 25 23 23 21 22 23 22
29 34 33 34 36 39 40 41 41 39 32 27 23 22 23 30 36 33 21 20 20 21 24 26 26 26 26 27 27 28 28 28 29 29 27 28 29 28 25 24 22 23 25 25
37 38 37 39 38 38 34 26 25 25 26 29 33 35 35 35 31 24 21 22 24 25 26 27 27 26 27 27 27 27 28 30 30 30 30 28 29 28 28 27 26 25 24 22
40 40 39 31 27 26 26 28 30 32 34 35 36 35 34 29 24 23 24 26 27 27 27 27 26 25 27 27 26 27 28 30 31 31 30 28 25 25 27 27 26 25 24 23
33 29 28 27 27 29 31 32 33 33 34 34 32 33 32 27 23 25 28 28 26 25 27 26 25 25 27 27 27 28 29 30 30 31 30 29 26 25 26 27 27 26 25 25
33 29 31 31 31 31 33 34 34 33 34 35 35 31 25 23 26 27 26 26 26 26 27 25 25 26 27 27 29 28 28 28 28 30 29 28 28 27 25 26 25 25 24 27
34 34 35 34 33 33 33 34 34 34 34 32 26 25 24 24 24 25 25 24 24 25 26 27 27 27 27 28 29 28 28 28 29 29 29 28 28 28 27 26 24 24 24 25
36 35 35 34 34 33 34 34 31 27 26 26 26 26 27 26 26 25 25 24 24 24 25 27 27 27 27 28 28 29 29 29 29 29 29 28 27 27 27 26 25 24 23 24
34 34 30 24 24 24 24 27 28 28 28 27 27 26 25 25 25 25 25 25 26 26 27 27 27 28 28 28 28 29 30 30 29 28 29 28 27 26 26 25 24 24 24 24
21 23 23 25 26 27 27 27 27 27 27 27 26 27 26 27 27 25 27 27 29 28 28 28 28 28 28 28 29 30 30 30 29 28 28 28 27 26 26 26 25 25 25 24
27 27 27 26 26 27 27 27 27 27 27 27 26 25 25 26 27 26 26 27 29 29 29 30 28 28 27 28 29 29 28 29 30 29 29 29 28 27 27 27 27 27 27 27
28 28 27 27 27 27 27 27 27 27 27 27 27 27 26 27 27 27 28 29 29 30 29 30 29 28 28 29 29 28 28 28 29 29 29 28 28 28 27 27 27 28 28 27
27 28 27 27 26 26 25 26 26 27 27 27 27 27 26 26 26 28 29 28 28 29 29 30 31 29 29 29 26 23 22 22 22 20 20 20 22 24 26 26 26 26 26 26
27 27 26 25 24 23 22 21 21 21 22 21 23 23 23 25 26 26 27 27 28 29 28 30 26 21 21 20 18 16 16 15 13 13 13 14 14 13 14 15 16 16 18 25
25 24 23 22 21 18 16 16 17 18 19 19 20 22 23 23 24 24 24 25 27 28 28 21 18 16 15 14 13 12 12 11 10 10 10 9 9 9 10 10 10 11 12 14
20 18 17 17 15 14 13 12 14 15 16 16 16 17 18 19 19 20 21 23 26 22 17 15 13 11 11 10 10 9 9 9 7 6 6 6 6 7 7 7 8 9 10 12

GFSNGP_sfc_30mbdewp_012.txt.gz
Dewpoint
25 26 24 22 23 23 19 19 16 9 14 10 17 22 27 33 36 36 36 34 33 31 28 25 24 27 31 27 24 23 21 20 21 24 25 26 27 26 27 28 28 29 27 26
27 28 26 23 22 23 23 21 21 17 17 20 24 29 31 34 35 35 35 34 33 33 30 25 24 29 26 26 23 22 21 21 22 23 24 26 26 27 26 25 27 27 28 28
21 26 25 21 23 20 21 23 23 17 19 27 29 30 31 33 34 34 34 34 34 33 30 26 24 25 26 23 22 22 20 21 21 23 25 23 24 25 24 25 27 26 28 29
24 20 13 14 23 23 21 21 21 22 24 26 27 32 33 34 35 35 34 34 35 33 30 27 24 24 24 21 20 19 20 21 21 20 21 22 23 24 25 25 25 24 24 27
24 19 16 6 16 20 23 14 21 21 22 28 34 35 34 35 36 36 36 36 36 33 30 26 25 23 20 18 18 20 19 16 18 22 21 21 22 25 26 24 24 23 25 24
22 18 13 17 21 32 30 17 27 29 30 33 35 32 21 36 36 37 37 37 35 30 28 24 20 18 18 19 20 16 18 21 21 20 21 22 24 25 26 25 23 21 22 23
26 25 22 22 25 31 19 18 30 33 33 35 34 31 35 36 37 38 37 36 31 24 21 19 20 21 20 19 14 18 22 21 21 22 24 24 24 25 25 24 22 24 24 22
27 23 17 24 31 26 30 35 32 34 35 36 35 37 36 36 37 37 35 28 23 20 21 22 24 20 14 13 18 22 22 22 23 25 26 24 26 26 25 23 21 25 28 26
26 24 27 28 31 34 35 34 34 35 34 37 36 37 35 34 33 32 27 21 19 21 23 24 19 17 14 16 23 24 24 24 25 27 26 26 25 25 25 22 22 23 22 22
29 27 27 28 29 30 32 33 33 33 35 36 37 37 37 34 29 26 20 18 20 23 24 16 19 20 20 23 25 25 25 25 26 25 27 27 26 25 24 23 23 21 22 21
31 29 30 30 32 33 34 36 38 38 40 40 40 39 37 31 25 21 23 28 29 26 17 16 20 21 23 25 25 24 26 26 24 25 25 25 26 28 26 24 22 23 22 22
28 26 30 30 33 37 38 38 40 40 40 38 39 38 34 26 22 34 33 29 25 22 21 22 23 25 26 25 26 28 27 26 25 26 25 25 25 27 28 24 23 22 22 23
32 35 35 36 39 41 40 38 35 34 33 30 28 26 26 36 35 35 33 30 25 21 23 27 26 27 25 26 27 28 27 26 26 26 26 25 25 26 26 27 24 25 24 25
40 40 38 39 37 34 32 31 32 33 34 34 35 36 34 34 33 31 29 26 26 27 26 28 29 27 26 27 27 27 27 27 28 27 27 27 26 27 28 27 28 29 27 24
38 40 36 32 30 30 32 34 34 34 35 34 35 34 33 30 29 28 27 27 28 29 29 28 27 25 26 27 26 26 27 27 29 30 30 30 31 28 27 26 27 27 27 27
33 32 31 31 31 33 35 35 33 33 34 33 31 31 31 31 28 24 26 28 29 28 27 27 28 27 27 28 27 27 27 29 29 27 27 29 30 29 28 28 28 27 25 24
34 32 31 31 33 34 34 34 33 31 33 33 35 36 33 29 27 26 28 29 30 29 30 30 29 27 28 29 28 27 27 27 27 26 26 26 28 27 27 29 28 27 25 28
34 34 35 35 34 33 33 31 33 35 34 30 27 27 26 26 27 29 30 29 28 28 29 30 31 30 29 29 29 28 28 28 29 29 27 27 26 27 29 28 29 29 27 27
37 35 34 33 32 34 34 30 28 27 28 29 28 28 28 28 29 29 29 27 28 28 28 31 30 29 29 30 29 29 31 32 31 28 28 28 28 27 29 29 29 30 29 27
31 29 26 25 27 29 29 29 30 29 29 29 28 29 29 30 29 29 29 29 30 31 31 31 30 30 31 30 29 27 30 30 29 26 29 29 29 29 29 29 29 29 30 29
24 27 28 27 28 29 29 29 29 29 30 29 29 28 28 29 30 30 30 29 28 31 31 30 30 31 30 28 27 29 32 31 30 29 29 29 29 29 30 29 29 29 29 30
30 30 28 29 30 30 30 30 30 29 29 28 28 28 27 27 27 28 30 30 31 31 31 31 32 33 32 30 29 31 30 28 27 28 29 30 30 29 29 29 28 29 29 30
30 29 30 29 29 29 28 26 26 26 25 25 25 24 24 24 25 25 23 25 27 26 28 28 30 31 31 30 30 30 30 28 27 26 26 25 25 27 26 26 27 28 28 27
29 29 28 28 26 24 21 18 20 21 22 22 22 24 23 23 23 22 24 24 24 25 26 28 29 29 30 30 30 29 26 24 23 21 20 19 20 20 20 20 20 20 20 21
27 26 25 24 21 17 16 15 15 16 17 17 18 19 19 18 19 22 22 23 23 23 26 28 24 23 24 23 21 20 21 19 17 17 16 16 16 16 16 15 15 15 15 16
24 22 21 18 15 14 14 14 14 14 14 14 14 15 16 17 18 19 19 18 18 17 18 17 15 17 16 16 16 15 15 14 14 13 12 12 12 12 12 11 12 13 13 14
16 16 16 15 13 13 13 12 13 13 13 14 13 14 15 15 17 15 14 15 15 14 15 14 13 12 12 12 12 12 12 11 9 8 8 8 8 8 8 8 9 10 11 12

GFSNGP_sfc_30mbdewp_015.txt.gz
Dewpoint
23 25 22 19 18 19 17 16 14 14 5 4 8 13 17 22 28 29 35 38 39 37 36 35 33 30 29 32 33 24 21 20 21 23 25 24 23 25 24 26 25 25 24 26
29 26 24 21 20 16 16 17 13 12 11 11 17 18 22 23 29 30 34 36 37 36 34 33 31 29 30 33 28 24 23 23 22 23 24 22 23 25 24 24 23 24 23 24
20 27 26 24 25 20 16 17 17 15 15 18 23 23 23 24 29 31 33 35 36 35 35 33 31 29 30 28 26 24 23 22 22 22 21 22 21 20 21 23 24 23 23 23
23 24 16 14 20 18 19 17 16 17 17 17 22 27 28 29 29 32 33 34 35 35 35 35 32 28 28 26 23 23 21 21 22 19 17 18 19 19 20 23 24 23 22 24
29 17 14 13 10 16 18 15 14 19 16 18 27 31 29 31 32 32 33 34 35 35 36 35 31 27 26 24 20 20 22 21 15 16 18 18 18 19 22 24 24 23 22 22
25 24 19 22 22 28 26 12 21 21 22 22 29 28 22 32 31 32 33 35 35 36 36 34 29 26 24 21 26 21 19 16 17 17 16 17 18 21 23 24 24 22 21 21
28 28 25 21 22 28 16 22 27 28 25 27 27 27 35 36 33 33 34 35 37 37 34 31 25 22 27 23 22 16 18 19 18 18 19 21 22 22 24 24 24 24 24 24
32 31 20 22 27 24 33 30 31 30 29 33 34 34 35 36 35 35 36 36 36 32 27 23 25 27 26 24 18 21 21 20 20 21 23 24 24 25 25 24 24 24 27 27
26 25 28 26 25 28 32 32 31 32 33 33 33 33 34 35 35 34 36 32 28 23 24 28 29 25 21 22 22 21 22 22 23 24 25 25 25 25 24 23 23 23 25 27
28 22 24 25 26 28 30 31 32 32 34 35 36 37 37 37 35 32 28 22 22 28 30 28 30 27 20 24 26 25 24 25 26 26 25 25 26 26 25 24 24 25 25 24
28 25 24 27 29 32 33 36 37 38 38 40 39 38 38 37 31 26 22 30 32 32 31 29 24 22 24 25 26 26 27 27 26 27 26 25 24 25 26 27 27 26 26 26
28 31 32 30 34 38 38 39 40 40 39 35 36 37 35 26 26 32 32 33 33 32 27 23 24 25 26 27 27 28 28 28 27 27 27 26 25 26 27 28 28 26 22 24
33 36 36 36 39 38 36 35 34 33 32 31 30 31 34 35 35 33 33 32 30 25 23 24 25 27 28 28 28 27 27 27 27 27 26 26 27 27 27 28 28 26 24 23
40 40 38 37 36 34 35 36 36 36 35 36 35 34 34 34 33 32 31 28 25 24 25 26 27 28 29 27 27 28 28 28 27 27 28 30 28 29 29 28 29 29 30 27
37 37 35 33 34 34 35 35 35 35 35 34 33 32 30 28 27 26 25 25 26 27 26 26 26 26 26 25 26 26 27 27 28 29 31 29 29 29 30 29 29 29 28 29
35 34 34 34 34 35 35 34 33 32 31 30 27 28 27 27 26 25 23 24 27 26 26 30 31 29 28 27 26 27 28 29 28 29 28 28 29 29 29 30 29 28 29 28
35 33 33 35 35 35 33 31 29 30 31 33 31 29 28 29 28 24 26 28 32 32 32 32 32 30 29 29 27 28 29 30 29 30 29 29 29 28 27 27 28 28 28 31
35 35 35 33 32 31 30 33 32 30 27 26 28 30 30 29 29 31 32 33 32 31 32 32 32 31 30 29 29 30 31 31 31 32 32 31 31 29 29 28 28 28 28 30
34 33 32 30 32 31 28 28 30 30 31 31 30 30 31 31 32 31 31 31 31 30 28 32 31 31 31 30 30 31 31 32 32 31 30 29 29 28 30 30 29 29 29 30
30 29 26 27 31 31 31 31 33 30 30 30 31 31 30 30 30 30 31 30 31 32 33 32 31 31 31 30 30 31 31 31 31 30 30 29 28 29 30 29 29 30 31 30
26 29 30 31 30 31 31 31 31 30 30 29 28 27 27 27 26 26 25 23 24 29 26 26 26 27 29 31 32 33 33 33 32 31 31 29 30 29 30 30 30 30 30 30
31 30 31 32 31 29 29 28 28 27 26 26 26 26 25 23 24 24 25 24 24 24 24 25 25 26 27 28 28 29 30 30 31 31 30 29 27 26 26 28 29 29 29 29
30 31 31 30 29 28 26 24 26 25 24 24 23 23 22 22 21 19 20 21 21 22 22 24 26 25 27 30 29 30 30 30 30 29 27 24 23 22 22 23 24 24 24 25
30 29 28 28 26 23 19 17 18 20 21 20 20 21 19 18 18 17 19 19 20 18 20 21 18 18 20 24 23 23 24 24 22 22 22 21 20 20 19 19 19 19 20 20
28 27 26 24 20 18 16 15 15 16 15 15 16 15 16 16 16 16 18 17 17 17 17 18 15 14 17 17 17 17 18 18 17 17 16 17 16 16 16 15 15 15 15 16
26 24 20 17 16 15 15 13 15 14 14 14 14 15 16 16 17 17 17 16 15 15 15 15 15 13 13 13 14 13 14 14 12 12 12 13 12 11 11 11 11 11 12 12
18 18 18 17 14 13 15 13 15 14 14 15 13 15 14 14 15 14 15 15 14 14 13 14 14 12 11 10 11 11 11 11 10 9 9 9 7 8 7 7 8 8 10 11